ZQ-2E R/B, 62113

Orbit data source: Space-Track

ZQ-2E R/B, 62113 is space debris in LEO originally from a launch on Wed, 27 Nov 2024 UTC launched from the Jiuquan Satellite Launch Center, China (JSC). Debris objects in space refer to the collection of defunct objects orbiting the Earth. Examples of debris include non-operational satellites, rocket bodies, and fragments generated from explosions, collisions, or faulty payload assembly.

Not visible in the next 10 days
ZQ-2E R/B details
Identifier
62113, 2024-221C
Orbit
LEO
Last TLE update2 days ago
Origin
Flag of CNLanjian Hangtian (CN / PRC)
ManufacturerLanjian Hangtian
MissionDecayed spacecraft
Bus & MotorZQ-2 ST 2, Unknown motor
Mass~5,000 kg wet, ~5,000 kg dry
Launch date (UTC)
2024-11-27 (1 month ago)
Launch vehicleUnknown
Launch site
Jiuquan Satellite Launch Center, China (JSC)
Object type
Payload
Rocket body
Debris
Shape & HBRUnknown
Radar Cross SectionLarge (>1 m²)

Expand to show TLE details & history

TLE from 2 days ago
0 ZQ-2E R/B
1 62113U 24221C   24359.27350825  .17063427  11656-4  23207-3 0  9999
2 62113  49.8914 275.2215 0042979 178.2700 320.2910 16.43889986  4294
Epoch: 2024-12-24T06:33Z
Definitive object data (Epoch: 2024-12-24T06:33:51.112Z)
Latitude30.72693°
Longitude-126.37869°
Altitude135.37 km
Speed7.842 km/s
True Right ascension04h 21m 28s
True Declination30° 33' 42"
Sunlit
Object was in full shadow at TLE epoch
Visualization observer readout
Observer readout values are unavailable because the object's trajectory could not be propagated. This is usually caused when the trajectory data is faulty or the object's orbit has decayed.
Visualization observer readout
Observer readout values are unavailable because the object's trajectory could not be propagated. This is usually caused when the trajectory data is faulty or the object's orbit has decayed.
Orbital elements
Apogee altitude184.39 km
Perigee altitude128.221 km
Semi-major axis6,534.442 km
Eccentricity0.0042979
Inclination49.8914°
RAAN275.2215°
Arg. of periapsis178.27°
True anomaly319.97504°
Mean anomaly320.291°
Eccentric anomaly320.13315°
Mean motion4.10895 °/min
BSTAR0.00023207
Orbital period87.61 mins
Loading maneuver chart data...
Loading historical data...
Loading historical data...
Loading historical data...
Loading historical data...
Loading historical data...
Loading historical data...
Loading historical data...
Other satellites on launch #221 in the year 2024 (2024-11-27 UTC)

ZQ-2E R/B Visibility forecast

Observer location: undefined°, undefined

ZQ-2E R/B is not visible in the next 10 days
Span
Click to sort rows by Start time (UTC) header in descending order
Start Az.
Max El. time (UTC)
Max El. Az.
Max El.
End time (UTC)
End Az.
|